Saint Bonnet de Bellac- Haute Vienne - France
Donnes mto: jeudi, 03/11/2011
Date Horaire Temp. E. Hum. E. P.atmo. Pluie Vent Direction Direction Ensoleilleme Solaire P. de rose Temp au vent Rafales
03/11/2011 00:00 17,8 C 72 % 999,0 hPa 0,0 mm 10,1 km/h (2 Bft) S 180 0 min 0 W/m 12,7 C 17,8 C 14,4 km/h (3 Bft)
03/11/2011 00:05 17,8 C 72 % 998,9 hPa 0,0 mm 9,0 km/h (2 Bft) S-SO 202 0 min 0 W/m 12,7 C 17,8 C 9,0 km/h (2 Bft)
03/11/2011 00:10 17,8 C 72 % 998,9 hPa 0,0 mm 10,8 km/h (2 Bft) S-SO 202 0 min 0 W/m 12,7 C 17,8 C 16,6 km/h (3 Bft)
03/11/2011 00:15 17,7 C 72 % 999,0 hPa 0,0 mm 11,9 km/h (2 Bft) S-SO 202 0 min 0 W/m 12,6 C 17,7 C 13,0 km/h (3 Bft)
03/11/2011 00:20 17,8 C 72 % 999,1 hPa 0,0 mm 15,1 km/h (3 Bft) S 180 0 min 0 W/m 12,7 C 17,8 C 24,8 km/h (4 Bft)
03/11/2011 00:25 17,8 C 72 % 999,1 hPa 0,0 mm 10,4 km/h (2 Bft) S 180 0 min 0 W/m 12,7 C 17,8 C 13,3 km/h (3 Bft)
03/11/2011 00:30 17,9 C 71 % 999,0 hPa 0,0 mm 11,2 km/h (2 Bft) S 180 0 min 0 W/m 12,6 C 17,9 C 15,5 km/h (3 Bft)
03/11/2011 00:35 17,9 C 71 % 998,9 hPa 0,0 mm 16,6 km/h (3 Bft) S 180 0 min 0 W/m 12,6 C 17,9 C 27,7 km/h (5 Bft)
03/11/2011 00:40 18,1 C 71 % 998,7 hPa 0,0 mm 5,4 km/h (2 Bft) SE 135 0 min 0 W/m 12,8 C 18,1 C 8,6 km/h (2 Bft)
03/11/2011 00:45 18,0 C 70 % 998,6 hPa 0,0 mm 13,0 km/h (3 Bft) SE 135 0 min 0 W/m 12,4 C 18,0 C 19,8 km/h (3 Bft)
03/11/2011 00:50 18,1 C 70 % 998,5 hPa 0,0 mm 13,7 km/h (3 Bft) S-SE 157 0 min 0 W/m 12,5 C 18,1 C 13,7 km/h (3 Bft)
03/11/2011 00:55 18,1 C 70 % 998,4 hPa 0,0 mm 8,3 km/h (2 Bft) S 180 0 min 0 W/m 12,5 C 18,1 C 12,2 km/h (2 Bft)
03/11/2011 01:00 18,1 C 70 % 998,4 hPa 0,0 mm 18,7 km/h (3 Bft) S 180 0 min 0 W/m 12,5 C 18,1 C 33,1 km/h (5 Bft)
03/11/2011 01:05 18,1 C 70 % 998,6 hPa 0,0 mm 6,5 km/h (2 Bft) S 180 0 min 0 W/m 12,5 C 18,1 C 8,6 km/h (2 Bft)
03/11/2011 01:10 18,0 C 70 % 998,7 hPa 0,0 mm 10,8 km/h (2 Bft) S-SE 157 0 min 0 W/m 12,4 C 18,0 C 13,0 km/h (3 Bft)
03/11/2011 01:15 18,0 C 70 % 998,6 hPa 0,0 mm 9,4 km/h (2 Bft) S-SE 157 0 min 0 W/m 12,4 C 18,0 C 16,2 km/h (3 Bft)
03/11/2011 01:20 17,9 C 70 % 998,6 hPa 0,0 mm 11,9 km/h (2 Bft) S 180 0 min 0 W/m 12,3 C 17,9 C 16,6 km/h (3 Bft)
03/11/2011 01:25 17,9 C 70 % 998,5 hPa 0,0 mm 8,3 km/h (2 Bft) S 180 0 min 0 W/m 12,3 C 17,9 C 8,3 km/h (2 Bft)
03/11/2011 01:30 17,9 C 70 % 998,4 hPa 0,0 mm 12,2 km/h (2 Bft) S-SE 157 0 min 0 W/m 12,3 C 17,9 C 14,0 km/h (3 Bft)
03/11/2011 01:35 17,8 C 70 % 998,4 hPa 0,0 mm 7,6 km/h (2 Bft) S-SE 157 0 min 0 W/m 12,3 C 17,8 C 11,2 km/h (2 Bft)
03/11/2011 01:40 17,8 C 70 % 998,5 hPa 0,0 mm 9,7 km/h (2 Bft) S-SE 157 0 min 0 W/m 12,3 C 17,8 C 16,9 km/h (3 Bft)
03/11/2011 01:45 17,9 C 70 % 998,5 hPa 0,0 mm 7,9 km/h (2 Bft) S-SE 157 0 min 0 W/m 12,3 C 17,9 C 11,5 km/h (2 Bft)
03/11/2011 01:50 17,9 C 70 % 998,4 hPa 0,0 mm 14,4 km/h (3 Bft) S 180 0 min 0 W/m 12,3 C 17,9 C 14,4 km/h (3 Bft)
03/11/2011 01:55 17,9 C 70 % 998,4 hPa 0,0 mm 9,0 km/h (2 Bft) S-SE 157 0 min 0 W/m 12,3 C 17,9 C 20,9 km/h (4 Bft)
03/11/2011 02:02 17,9 C 70 % 998,4 hPa 0,0 mm 12,6 km/h (3 Bft) S-SE 157 0 min 0 W/m 12,3 C 17,9 C 19,8 km/h (3 Bft)
03/11/2011 02:05 18,0 C 70 % 998,4 hPa 0,0 mm 10,1 km/h (2 Bft) S-SE 157 0 min 0 W/m 12,4 C 18,0 C 19,4 km/h (3 Bft)
03/11/2011 02:10 18,0 C 69 % 998,5 hPa 0,0 mm 14,4 km/h (3 Bft) S-SE 157 0 min 0 W/m 12,2 C 18,0 C 20,9 km/h (4 Bft)
03/11/2011 02:15 18,0 C 70 % 998,5 hPa 0,0 mm 16,2 km/h (3 Bft) S-SO 202 0 min 0 W/m 12,4 C 18,0 C 16,2 km/h (3 Bft)
03/11/2011 02:20 18,0 C 70 % 998,5 hPa 0,0 mm 14,0 km/h (3 Bft) E-SE 112 0 min 0 W/m 12,4 C 18,0 C 22,3 km/h (4 Bft)
03/11/2011 02:25 17,9 C 70 % 998,4 hPa 0,0 mm 12,6 km/h (3 Bft) SE 135 0 min 0 W/m 12,3 C 17,9 C 25,6 km/h (4 Bft)
03/11/2011 02:30 17,9 C 70 % 998,4 hPa 0,0 mm 19,1 km/h (3 Bft) E-SE 112 0 min 0 W/m 12,3 C 17,9 C 26,6 km/h (4 Bft)
03/11/2011 02:35 17,9 C 70 % 998,4 hPa 0,0 mm 10,1 km/h (2 Bft) S-SO 202 0 min 0 W/m 12,3 C 17,9 C 11,5 km/h (2 Bft)
03/11/2011 02:40 18,0 C 70 % 998,6 hPa 0,0 mm 7,2 km/h (2 Bft) S-SO 202 0 min 0 W/m 12,4 C 18,0 C 13,7 km/h (3 Bft)
03/11/2011 02:45 18,0 C 70 % 998,6 hPa 0,0 mm 10,4 km/h (2 Bft) E-SE 112 0 min 0 W/m 12,4 C 18,0 C 15,8 km/h (3 Bft)
03/11/2011 02:50 18,0 C 70 % 998,7 hPa 0,0 mm 17,6 km/h (3 Bft) S-SO 202 0 min 0 W/m 12,4 C 18,0 C 22,3 km/h (4 Bft)
03/11/2011 02:55 18,0 C 70 % 998,7 hPa 0,0 mm 11,9 km/h (2 Bft) S 180 0 min 0 W/m 12,4 C 18,0 C 22,3 km/h (4 Bft)
03/11/2011 03:00 18,0 C 70 % 998,9 hPa 0,0 mm 9,0 km/h (2 Bft) S 180 0 min 0 W/m 12,4 C 18,0 C 13,0 km/h (3 Bft)
03/11/2011 03:05 18,0 C 70 % 998,8 hPa 0,0 mm 10,1 km/h (2 Bft) S-SO 202 0 min 0 W/m 12,4 C 18,0 C 10,4 km/h (2 Bft)
03/11/2011 03:10 18,0 C 69 % 998,9 hPa 0,0 mm 7,2 km/h (2 Bft) S 180 0 min 0 W/m 12,2 C 18,0 C 11,2 km/h (2 Bft)
03/11/2011 03:15 18,1 C 69 % 998,9 hPa 0,0 mm 13,0 km/h (3 Bft) S-SO 202 0 min 0 W/m 12,3 C 18,1 C 18,0 km/h (3 Bft)
03/11/2011 03:20 18,1 C 69 % 998,8 hPa 0,0 mm 7,2 km/h (2 Bft) S 180 0 min 0 W/m 12,3 C 18,1 C 13,7 km/h (3 Bft)
03/11/2011 03:25 18,1 C 69 % 998,7 hPa 0,0 mm 9,0 km/h (2 Bft) S 180 0 min 0 W/m 12,3 C 18,1 C 12,6 km/h (3 Bft)
03/11/2011 03:30 18,0 C 69 % 998,6 hPa 0,0 mm 10,4 km/h (2 Bft) S-SO 202 0 min 0 W/m 12,2 C 18,0 C 10,4 km/h (2 Bft)
03/11/2011 03:35 18,0 C 69 % 998,6 hPa 0,0 mm 11,9 km/h (2 Bft) SO 225 0 min 0 W/m 12,2 C 18,0 C 14,4 km/h (3 Bft)
03/11/2011 03:40 18,1 C 69 % 998,8 hPa 0,0 mm 9,0 km/h (2 Bft) S-SO 202 0 min 0 W/m 12,3 C 18,1 C 11,2 km/h (2 Bft)
03/11/2011 03:45 18,1 C 69 % 998,7 hPa 0,0 mm 12,2 km/h (2 Bft) S 180 0 min 0 W/m 12,3 C 18,1 C 18,7 km/h (3 Bft)
03/11/2011 03:50 18,1 C 69 % 998,7 hPa 0,0 mm 10,8 km/h (2 Bft) S-SO 202 0 min 0 W/m 12,3 C 18,1 C 17,3 km/h (3 Bft)
03/11/2011 03:55 18,1 C 69 % 998,7 hPa 0,0 mm 8,3 km/h (2 Bft) S-SO 202 0 min 0 W/m 12,3 C 18,1 C 8,3 km/h (2 Bft)
03/11/2011 04:00 18,0 C 69 % 998,7 hPa 0,0 mm 13,3 km/h (3 Bft) S-SO 202 0 min 0 W/m 12,2 C 18,0 C 18,7 km/h (3 Bft)
03/11/2011 04:05 17,9 C 70 % 998,8 hPa 0,0 mm 4,7 km/h (1 Bft) SE 135 0 min 0 W/m 12,3 C 17,9 C 8,3 km/h (2 Bft)
03/11/2011 04:10 17,9 C 70 % 998,8 hPa 0,0 mm 8,6 km/h (2 Bft) S-SE 157 0 min 0 W/m 12,3 C 17,9 C 16,6 km/h (3 Bft)
03/11/2011 04:15 17,8 C 70 % 998,9 hPa 0,0 mm 7,2 km/h (2 Bft) SO 225 0 min 0 W/m 12,3 C 17,8 C 10,8 km/h (2 Bft)
03/11/2011 04:20 17,8 C 71 % 998,9 hPa 0,0 mm 9,4 km/h (2 Bft) O-SO 247 0 min 0 W/m 12,5 C 17,8 C 9,4 km/h (2 Bft)
03/11/2011 04:25 17,7 C 71 % 999,0 hPa 0,0 mm 6,1 km/h (2 Bft) S 180 0 min 0 W/m 12,4 C 17,7 C 10,1 km/h (2 Bft)
03/11/2011 04:30 17,6 C 72 % 999,0 hPa 0,0 mm 6,8 km/h (2 Bft) S-SO 202 0 min 0 W/m 12,5 C 17,6 C 9,7 km/h (2 Bft)
03/11/2011 04:35 17,4 C 72 % 998,9 hPa 0,0 mm 8,6 km/h (2 Bft) S 180 0 min 0 W/m 12,3 C 17,4 C 12,2 km/h (2 Bft)
03/11/2011 04:40 17,4 C 73 % 999,0 hPa 0,0 mm 4,7 km/h (1 Bft) S-SO 202 0 min 0 W/m 12,5 C 17,4 C 8,3 km/h (2 Bft)
03/11/2011 04:45 17,3 C 73 % 999,0 hPa 0,0 mm 5,8 km/h (2 Bft) S-SO 202 0 min 0 W/m 12,4 C 17,3 C 7,6 km/h (2 Bft)
03/11/2011 04:50 17,2 C 74 % 999,1 hPa 0,0 mm 4,3 km/h (1 Bft) S-SO 202 0 min 0 W/m 12,5 C 17,2 C 6,8 km/h (2 Bft)
03/11/2011 04:55 17,0 C 75 % 999,1 hPa 0,0 mm 7,6 km/h (2 Bft) S-SO 202 0 min 0 W/m 12,5 C 17,0 C 13,7 km/h (3 Bft)
03/11/2011 05:00 16,9 C 75 % 999,1 hPa 0,0 mm 5,4 km/h (2 Bft) S-SE 157 0 min 0 W/m 12,4 C 16,9 C 6,1 km/h (2 Bft)
03/11/2011 05:05 16,8 C 77 % 999,1 hPa 0,0 mm 7,9 km/h (2 Bft) S 180 0 min 0 W/m 12,7 C 16,8 C 17,6 km/h (3 Bft)
03/11/2011 05:10 16,7 C 77 % 999,0 hPa 0,0 mm 6,5 km/h (2 Bft) SO 225 0 min 0 W/m 12,6 C 16,7 C 6,8 km/h (2 Bft)
03/11/2011 05:15 16,5 C 79 % 999,1 hPa 0,3 mm 4,3 km/h (1 Bft) S-SO 202 0 min 0 W/m 12,8 C 16,5 C 6,8 km/h (2 Bft)
03/11/2011 05:20 16,3 C 79 % 999,0 hPa 0,0 mm 7,9 km/h (2 Bft) S 180 0 min 0 W/m 12,6 C 16,3 C 14,4 km/h (3 Bft)
03/11/2011 05:25 16,2 C 79 % 998,8 hPa 0,0 mm 12,2 km/h (2 Bft) S 180 0 min 0 W/m 12,6 C 16,2 C 17,3 km/h (3 Bft)
03/11/2011 05:30 16,1 C 80 % 998,6 hPa 0,3 mm 10,4 km/h (2 Bft) S-SO 202 0 min 0 W/m 12,6 C 16,1 C 15,5 km/h (3 Bft)
03/11/2011 05:35 15,9 C 81 % 998,4 hPa 0,0 mm 4,7 km/h (1 Bft) S-SE 157 0 min 0 W/m 12,6 C 15,9 C 4,7 km/h (1 Bft)
03/11/2011 05:40 15,9 C 81 % 998,0 hPa 0,0 mm 13,7 km/h (3 Bft) S 180 0 min 0 W/m 12,6 C 15,9 C 18,7 km/h (3 Bft)
03/11/2011 05:45 15,9 C 81 % 997,9 hPa 0,0 mm 10,4 km/h (2 Bft) S-SE 157 0 min 0 W/m 12,6 C 15,9 C 15,1 km/h (3 Bft)
03/11/2011 05:50 16,0 C 80 % 997,7 hPa 0,0 mm 4,7 km/h (1 Bft) SE 135 0 min 0 W/m 12,5 C 16,0 C 7,9 km/h (2 Bft)
03/11/2011 05:55 16,0 C 81 % 997,7 hPa 0,0 mm 8,6 km/h (2 Bft) E-SE 112 0 min 0 W/m 12,7 C 16,0 C 15,5 km/h (3 Bft)
03/11/2011 06:00 16,0 C 80 % 997,5 hPa 0,0 mm 5,0 km/h (1 Bft) S-SE 157 0 min 0 W/m 12,5 C 16,0 C 15,5 km/h (3 Bft)
03/11/2011 06:05 16,1 C 80 % 997,4 hPa 0,0 mm 7,9 km/h (2 Bft) S-SE 157 0 min 0 W/m 12,6 C 16,1 C 13,0 km/h (3 Bft)
03/11/2011 06:10 16,2 C 80 % 997,3 hPa 0,0 mm 7,9 km/h (2 Bft) SE 135 0 min 0 W/m 12,7 C 16,2 C 15,8 km/h (3 Bft)
03/11/2011 06:15 16,3 C 79 % 997,2 hPa 0,0 mm 4,7 km/h (1 Bft) S-SO 202 0 min 0 W/m 12,6 C 16,3 C 9,0 km/h (2 Bft)
03/11/2011 06:20 16,3 C 79 % 997,1 hPa 0,0 mm 10,4 km/h (2 Bft) S-SE 157 0 min 0 W/m 12,6 C 16,3 C 17,3 km/h (3 Bft)
03/11/2011 06:25 16,4 C 79 % 997,1 hPa 0,0 mm 5,8 km/h (2 Bft) S-SE 157 0 min 0 W/m 12,7 C 16,4 C 10,8 km/h (2 Bft)
03/11/2011 06:30 16,5 C 78 % 997,0 hPa 0,0 mm 9,0 km/h (2 Bft) S 180 0 min 0 W/m 12,6 C 16,5 C 14,8 km/h (3 Bft)
03/11/2011 06:35 16,6 C 77 % 997,1 hPa 0,0 mm 10,1 km/h (2 Bft) S 180 0 min 0 W/m 12,5 C 16,6 C 12,6 km/h (3 Bft)
03/11/2011 06:40 16,7 C 77 % 997,0 hPa 0,0 mm 7,2 km/h (2 Bft) E 90 0 min 0 W/m 12,6 C 16,7 C 14,8 km/h (3 Bft)
03/11/2011 06:45 16,8 C 77 % 997,2 hPa 0,0 mm 10,4 km/h (2 Bft) S 180 0 min 0 W/m 12,7 C 16,8 C 23,8 km/h (4 Bft)
03/11/2011 06:50 16,8 C 77 % 997,2 hPa 0,0 mm 12,6 km/h (3 Bft) S 180 0 min 0 W/m 12,7 C 16,8 C 15,8 km/h (3 Bft)
03/11/2011 06:55 16,9 C 76 % 997,3 hPa 0,0 mm 6,5 km/h (2 Bft) S 180 0 min 0 W/m 12,6 C 16,9 C 16,6 km/h (3 Bft)
03/11/2011 07:00 16,9 C 76 % 997,2 hPa 0,0 mm 5,4 km/h (2 Bft) S-SE 157 0 min 0 W/m 12,6 C 16,9 C 9,4 km/h (2 Bft)
03/11/2011 07:05 16,9 C 76 % 997,1 hPa 0,0 mm 7,9 km/h (2 Bft) S-SO 202 0 min 0 W/m 12,6 C 16,9 C 9,4 km/h (2 Bft)
03/11/2011 07:10 16,9 C 76 % 997,2 hPa 0,0 mm 6,8 km/h (2 Bft) S-SO 202 0 min 0 W/m 12,6 C 16,9 C 12,6 km/h (3 Bft)
03/11/2011 07:15 16,9 C 76 % 997,1 hPa 0,0 mm 15,1 km/h (3 Bft) SE 135 0 min 0 W/m 12,6 C 16,9 C 22,3 km/h (4 Bft)
03/11/2011 07:20 17,0 C 75 % 997,0 hPa 0,0 mm 9,0 km/h (2 Bft) S-SE 157 0 min 0 W/m 12,5 C 17,0 C 13,7 km/h (3 Bft)
03/11/2011 07:25 17,1 C 75 % 997,0 hPa 0,0 mm 8,6 km/h (2 Bft) S-SE 157 0 min 0 W/m 12,6 C 17,1 C 12,2 km/h (2 Bft)
03/11/2011 07:30 17,1 C 75 % 997,0 hPa 0,0 mm 13,0 km/h (3 Bft) S-SE 157 0 min 0 W/m 12,6 C 17,1 C 22,0 km/h (4 Bft)
03/11/2011 07:35 17,2 C 75 % 997,0 hPa 0,0 mm 11,5 km/h (2 Bft) S 180 0 min 0 W/m 12,7 C 17,2 C 20,5 km/h (4 Bft)
03/11/2011 07:40 17,2 C 75 % 997,1 hPa 0,0 mm 13,3 km/h (3 Bft) S-SE 157 0 min 0 W/m 12,7 C 17,2 C 18,7 km/h (3 Bft)
03/11/2011 07:45 17,3 C 74 % 997,1 hPa 0,0 mm 10,4 km/h (2 Bft) S-SE 157 0 min 0 W/m 12,6 C 17,3 C 19,4 km/h (3 Bft)
03/11/2011 07:50 17,3 C 74 % 997,4 hPa 0,0 mm 11,5 km/h (2 Bft) S-SO 202 0 min 0 W/m 12,6 C 17,3 C 18,7 km/h (3 Bft)
03/11/2011 07:55 17,3 C 75 % 997,7 hPa 0,0 mm 11,2 km/h (2 Bft) SO 225 0 min 0 W/m 12,8 C 17,3 C 17,3 km/h (3 Bft)
03/11/2011 08:00 17,3 C 75 % 997,9 hPa 0,0 mm 11,5 km/h (2 Bft) S-SO 202 0 min 0 W/m 12,8 C 17,3 C 14,8 km/h (3 Bft)
03/11/2011 08:05 17,2 C 75 % 998,1 hPa 0,0 mm 11,2 km/h (2 Bft) S-SO 202 0 min 0 W/m 12,7 C 17,2 C 16,2 km/h (3 Bft)
03/11/2011 08:10 17,1 C 76 % 998,2 hPa 0,0 mm 9,7 km/h (2 Bft) S-SO 202 0 min 0 W/m 12,8 C 17,1 C 13,0 km/h (3 Bft)
03/11/2011 08:15 17,1 C 77 % 998,2 hPa 0,0 mm 9,0 km/h (2 Bft) S 180 0 min 0 W/m 13,0 C 17,1 C 13,3 km/h (3 Bft)
03/11/2011 08:20 16,9 C 77 % 998,2 hPa 0,0 mm 7,6 km/h (2 Bft) S-SO 202 0 min 0 W/m 12,8 C 16,9 C 15,5 km/h (3 Bft)
03/11/2011 08:25 16,8 C 77 % 998,2 hPa 0,0 mm 5,4 km/h (2 Bft) SO 225 0 min 0 W/m 12,7 C 16,8 C 5,4 km/h (2 Bft)
03/11/2011 08:30 16,8 C 78 % 998,1 hPa 0,0 mm 0,7 km/h (0 Bft) S-SO 202 0 min 0 W/m 12,9 C 16,8 C 4,0 km/h (1 Bft)
03/11/2011 08:35 16,6 C 79 % 998,1 hPa 0,0 mm 4,7 km/h (1 Bft) S-SO 202 0 min 0 W/m 12,9 C 16,6 C 4,7 km/h (1 Bft)
03/11/2011 08:40 16,5 C 79 % 998,0 hPa 0,0 mm 3,6 km/h (1 Bft) SO 225 0 min 0 W/m 12,8 C 16,5 C 4,3 km/h (1 Bft)
03/11/2011 08:45 16,4 C 79 % 998,0 hPa 0,0 mm 1,1 km/h (1 Bft) S-SO 202 0 min 0 W/m 12,7 C 16,4 C 4,0 km/h (1 Bft)
03/11/2011 08:50 16,4 C 79 % 997,7 hPa 0,0 mm 0,0 km/h (0 Bft) S-SO 202 0 min 0 W/m 12,7 C 16,4 C 0,0 km/h (0 Bft)
03/11/2011 08:55 16,3 C 79 % 997,6 hPa 0,0 mm 0,4 km/h (0 Bft) SE 135 0 min 0 W/m 12,6 C 16,3 C 3,2 km/h (1 Bft)
03/11/2011 09:00 16,3 C 80 % 997,6 hPa 0,0 mm 2,9 km/h (1 Bft) S-SE 157 0 min 0 W/m 12,8 C 16,3 C 4,3 km/h (1 Bft)
03/11/2011 09:05 16,2 C 80 % 997,6 hPa 0,0 mm 0,0 km/h (0 Bft) S-SE 157 0 min 0 W/m 12,7 C 16,2 C 0,0 km/h (0 Bft)
03/11/2011 09:10 16,2 C 80 % 997,6 hPa 0,0 mm 0,0 km/h (0 Bft) S 180 0 min 0 W/m 12,7 C 16,2 C 0,0 km/h (0 Bft)
03/11/2011 09:15 16,2 C 81 % 997,6 hPa 0,0 mm 0,7 km/h (0 Bft) S 180 0 min 0 W/m 12,9 C 16,2 C 0,7 km/h (0 Bft)
03/11/2011 09:20 16,1 C 81 % 997,6 hPa 0,0 mm 1,8 km/h (1 Bft) S 180 0 min 0 W/m 12,8 C 16,1 C 3,6 km/h (1 Bft)
03/11/2011 09:25 16,1 C 81 % 997,6 hPa 0,0 mm 0,0 km/h (0 Bft) S 180 0 min 0 W/m 12,8 C 16,1 C 2,9 km/h (1 Bft)
03/11/2011 09:30 16,2 C 81 % 997,6 hPa 0,0 mm 0,4 km/h (0 Bft) S 180 0 min 0 W/m 12,9 C 16,2 C 4,3 km/h (1 Bft)
03/11/2011 09:35 16,2 C 81 % 997,5 hPa 0,0 mm 1,4 km/h (1 Bft) S 180 0 min 0 W/m 12,9 C 16,2 C 3,6 km/h (1 Bft)
03/11/2011 09:40 16,2 C 81 % 997,6 hPa 0,0 mm 0,0 km/h (0 Bft) S 180 0 min 0 W/m 12,9 C 16,2 C 0,0 km/h (0 Bft)
03/11/2011 09:45 16,2 C 81 % 997,6 hPa 0,0 mm 2,5 km/h (1 Bft) S-SE 157 0 min 0 W/m 12,9 C 16,2 C 7,9 km/h (2 Bft)
03/11/2011 09:50 16,2 C 81 % 997,6 hPa 0,0 mm 0,0 km/h (0 Bft) SO 225 0 min 0 W/m 12,9 C 16,2 C 0,0 km/h (0 Bft)
03/11/2011 09:55 16,2 C 81 % 997,5 hPa 0,0 mm 0,0 km/h (0 Bft) SO 225 0 min 0 W/m 12,9 C 16,2 C 0,0 km/h (0 Bft)
03/11/2011 10:00 16,1 C 82 % 997,4 hPa 0,0 mm 0,0 km/h (0 Bft) SO 225 0 min 0 W/m 13,0 C 16,1 C 0,0 km/h (0 Bft)
03/11/2011 10:05 16,2 C 82 % 997,4 hPa 0,0 mm 0,0 km/h (0 Bft) SO 225 0 min 0 W/m 13,1 C 16,2 C 3,2 km/h (1 Bft)
03/11/2011 10:10 16,3 C 81 % 997,3 hPa 0,0 mm 4,3 km/h (1 Bft) S-SE 157 0 min 0 W/m 13,0 C 16,3 C 7,6 km/h (2 Bft)
03/11/2011 10:15 16,5 C 80 % 997,2 hPa 0,0 mm 3,6 km/h (1 Bft) SE 135 0 min 0 W/m 13,0 C 16,5 C 6,5 km/h (2 Bft)
03/11/2011 10:20 16,8 C 80 % 997,1 hPa 0,0 mm 2,9 km/h (1 Bft) S-SO 202 0 min 0 W/m 13,3 C 16,8 C 6,8 km/h (2 Bft)
03/11/2011 10:25 16,9 C 79 % 997,0 hPa 0,0 mm 6,1 km/h (2 Bft) SO 225 0 min 0 W/m 13,2 C 16,9 C 9,4 km/h (2 Bft)
03/11/2011 10:30 17,3 C 77 % 996,9 hPa 0,0 mm 9,4 km/h (2 Bft) S-SE 157 0 min 0 W/m 13,2 C 17,3 C 13,0 km/h (3 Bft)
03/11/2011 10:35 17,6 C 77 % 997,0 hPa 0,0 mm 5,4 km/h (2 Bft) S-SO 202 0 min 0 W/m 13,5 C 17,6 C 7,2 km/h (2 Bft)
03/11/2011 10:40 17,8 C 76 % 996,9 hPa 0,0 mm 4,3 km/h (1 Bft) SO 225 0 min 0 W/m 13,5 C 17,8 C 4,3 km/h (1 Bft)
03/11/2011 10:45 18,0 C 75 % 996,8 hPa 0,0 mm 9,4 km/h (2 Bft) S-SO 202 0 min 0 W/m 13,5 C 18,0 C 13,3 km/h (3 Bft)
03/11/2011 10:50 18,3 C 74 % 996,9 hPa 0,0 mm 10,1 km/h (2 Bft) S-SO 202 0 min 0 W/m 13,6 C 18,3 C 10,1 km/h (2 Bft)
03/11/2011 10:55 18,5 C 74 % 996,9 hPa 0,0 mm 6,5 km/h (2 Bft) S-SE 157 0 min 0 W/m 13,8 C 18,5 C 8,6 km/h (2 Bft)
03/11/2011 11:00 18,7 C 73 % 996,9 hPa 0,0 mm 13,7 km/h (3 Bft) E-SE 112 0 min 0 W/m 13,8 C 18,7 C 20,5 km/h (4 Bft)
03/11/2011 11:05 18,9 C 72 % 996,9 hPa 0,0 mm 7,6 km/h (2 Bft) S-SE 157 0 min 0 W/m 13,7 C 18,9 C 15,1 km/h (3 Bft)
03/11/2011 11:10 19,0 C 71 % 996,8 hPa 0,0 mm 10,1 km/h (2 Bft) S 180 0 min 0 W/m 13,6 C 19,0 C 14,0 km/h (3 Bft)
03/11/2011 11:15 19,1 C 71 % 996,7 hPa 0,0 mm 7,9 km/h (2 Bft) S 180 0 min 0 W/m 13,7 C 19,1 C 12,2 km/h (2 Bft)
03/11/2011 11:20 19,1 C 71 % 996,6 hPa 0,0 mm 11,2 km/h (2 Bft) SE 135 0 min 0 W/m 13,7 C 19,1 C 18,7 km/h (3 Bft)
03/11/2011 11:25 19,0 C 71 % 996,5 hPa 0,0 mm 14,8 km/h (3 Bft) S-SE 157 0 min 0 W/m 13,6 C 19,0 C 23,8 km/h (4 Bft)
03/11/2011 11:30 18,9 C 71 % 996,6 hPa 0,0 mm 13,3 km/h (3 Bft) S 180 0 min 0 W/m 13,5 C 18,9 C 16,2 km/h (3 Bft)
03/11/2011 11:35 18,9 C 71 % 996,7 hPa 0,0 mm 14,8 km/h (3 Bft) SO 225 0 min 0 W/m 13,5 C 18,9 C 24,8 km/h (4 Bft)
03/11/2011 11:40 19,1 C 71 % 996,7 hPa 0,0 mm 18,7 km/h (3 Bft) S-SE 157 0 min 0 W/m 13,7 C 19,1 C 27,0 km/h (5 Bft)
03/11/2011 11:45 19,3 C 70 % 996,7 hPa 0,0 mm 13,7 km/h (3 Bft) S 180 0 min 0 W/m 13,7 C 19,3 C 16,2 km/h (3 Bft)
03/11/2011 11:50 19,4 C 69 % 996,7 hPa 0,0 mm 11,2 km/h (2 Bft) SE 135 0 min 0 W/m 13,6 C 19,4 C 21,2 km/h (4 Bft)
03/11/2011 11:55 19,5 C 69 % 996,6 hPa 0,0 mm 8,6 km/h (2 Bft) S 180 0 min 0 W/m 13,7 C 19,5 C 20,2 km/h (4 Bft)
03/11/2011 12:00 19,6 C 70 % 996,6 hPa 0,0 mm 9,0 km/h (2 Bft) S-SO 202 0 min 0 W/m 14,0 C 19,6 C 15,8 km/h (3 Bft)
03/11/2011 12:05 19,8 C 69 % 996,6 hPa 0,0 mm 10,1 km/h (2 Bft) S 180 0 min 0 W/m 13,9 C 19,8 C 13,7 km/h (3 Bft)
03/11/2011 12:10 19,8 C 68 % 996,6 hPa 0,0 mm 8,3 km/h (2 Bft) S-SO 202 0 min 0 W/m 13,7 C 19,8 C 15,1 km/h (3 Bft)
03/11/2011 12:15 19,9 C 68 % 996,5 hPa 0,0 mm 13,0 km/h (3 Bft) S 180 0 min 0 W/m 13,8 C 19,9 C 20,9 km/h (4 Bft)
03/11/2011 12:20 19,9 C 68 % 996,5 hPa 0,0 mm 7,2 km/h (2 Bft) S-SO 202 0 min 0 W/m 13,8 C 19,9 C 9,4 km/h (2 Bft)
03/11/2011 12:25 20,1 C 68 % 996,2 hPa 0,0 mm 8,6 km/h (2 Bft) S-SO 202 0 min 0 W/m 14,0 C 20,1 C 13,3 km/h (3 Bft)
03/11/2011 12:30 20,1 C 67 % 996,3 hPa 0,0 mm 8,3 km/h (2 Bft) S 180 0 min 0 W/m 13,8 C 20,1 C 12,2 km/h (2 Bft)
03/11/2011 12:35 20,2 C 67 % 996,2 hPa 0,0 mm 4,3 km/h (1 Bft) S 180 0 min 0 W/m 13,9 C 20,2 C 10,4 km/h (2 Bft)
03/11/2011 12:40 20,3 C 67 % 996,1 hPa 0,0 mm 7,6 km/h (2 Bft) S-SE 157 0 min 0 W/m 14,0 C 20,3 C 7,6 km/h (2 Bft)
03/11/2011 12:45 20,4 C 66 % 996,0 hPa 0,0 mm 15,1 km/h (3 Bft) S-SE 157 0 min 0 W/m 13,8 C 20,4 C 15,1 km/h (3 Bft)
03/11/2011 12:50 20,4 C 66 % 996,0 hPa 0,0 mm 4,3 km/h (1 Bft) S 180 0 min 0 W/m 13,8 C 20,4 C 11,9 km/h (2 Bft)
03/11/2011 12:55 20,4 C 66 % 995,8 hPa 0,0 mm 9,4 km/h (2 Bft) S-SE 157 0 min 0 W/m 13,8 C 20,4 C 9,7 km/h (2 Bft)
03/11/2011 13:00 20,5 C 66 % 995,8 hPa 0,0 mm 9,0 km/h (2 Bft) S-SO 202 0 min 0 W/m 13,9 C 20,5 C 14,4 km/h (3 Bft)
03/11/2011 13:05 20,5 C 65 % 995,7 hPa 0,0 mm 13,0 km/h (3 Bft) S 180 0 min 0 W/m 13,7 C 20,5 C 13,0 km/h (3 Bft)
03/11/2011 13:10 20,5 C 65 % 995,7 hPa 0,0 mm 7,2 km/h (2 Bft) S-SO 202 0 min 0 W/m 13,7 C 20,5 C 11,2 km/h (2 Bft)
03/11/2011 13:15 20,6 C 66 % 995,6 hPa 0,0 mm 4,7 km/h (1 Bft) S-SO 202 0 min 0 W/m 14,0 C 20,6 C 10,4 km/h (2 Bft)
03/11/2011 13:20 20,8 C 65 % 995,6 hPa 0,0 mm 5,4 km/h (2 Bft) S 180 0 min 0 W/m 14,0 C 20,8 C 10,8 km/h (2 Bft)
03/11/2011 13:25 20,8 C 65 % 995,6 hPa 0,0 mm 6,8 km/h (2 Bft) S-SE 157 0 min 0 W/m 14,0 C 20,8 C 6,8 km/h (2 Bft)
03/11/2011 13:30 20,9 C 65 % 995,5 hPa 0,0 mm 11,9 km/h (2 Bft) S-SE 157 0 min 0 W/m 14,1 C 20,9 C 11,9 km/h (2 Bft)
03/11/2011 13:35 20,9 C 65 % 995,4 hPa 0,0 mm 5,4 km/h (2 Bft) S-SE 157 0 min 0 W/m 14,1 C 20,9 C 13,7 km/h (3 Bft)
03/11/2011 13:40 20,9 C 65 % 995,4 hPa 0,0 mm 15,8 km/h (3 Bft) S-SE 157 0 min 0 W/m 14,1 C 20,9 C 26,3 km/h (4 Bft)
03/11/2011 13:45 21,1 C 64 % 995,3 hPa 0,0 mm 11,5 km/h (2 Bft) S-SO 202 0 min 0 W/m 14,0 C 21,1 C 12,6 km/h (3 Bft)
03/11/2011 13:50 21,0 C 64 % 995,4 hPa 0,0 mm 10,8 km/h (2 Bft) S 180 0 min 0 W/m 13,9 C 21,0 C 16,2 km/h (3 Bft)
03/11/2011 13:55 20,9 C 64 % 995,2 hPa 0,0 mm 12,2 km/h (2 Bft) S-SO 202 0 min 0 W/m 13,8 C 20,9 C 21,2 km/h (4 Bft)
03/11/2011 14:00 20,8 C 65 % 995,2 hPa 0,0 mm 9,0 km/h (2 Bft) S-SE 157 0 min 0 W/m 14,0 C 20,8 C 10,4 km/h (2 Bft)
03/11/2011 14:05 20,8 C 65 % 995,2 hPa 0,0 mm 7,2 km/h (2 Bft) S 180 0 min 0 W/m 14,0 C 20,8 C 11,5 km/h (2 Bft)
03/11/2011 14:10 20,6 C 65 % 995,1 hPa 0,0 mm 6,1 km/h (2 Bft) S-SE 157 0 min 0 W/m 13,8 C 20,6 C 6,1 km/h (2 Bft)
03/11/2011 14:15 20,5 C 65 % 994,9 hPa 0,0 mm 15,8 km/h (3 Bft) S 180 0 min 0 W/m 13,7 C 20,5 C 15,8 km/h (3 Bft)
03/11/2011 14:20 20,4 C 66 % 994,8 hPa 0,0 mm 8,3 km/h (2 Bft) S-SO 202 0 min 0 W/m 13,8 C 20,4 C 17,6 km/h (3 Bft)
03/11/2011 14:25 20,3 C 67 % 994,8 hPa 0,0 mm 6,8 km/h (2 Bft) S 180 0 min 0 W/m 14,0 C 20,3 C 10,8 km/h (2 Bft)
03/11/2011 14:30 20,2 C 68 % 994,8 hPa 0,0 mm 7,2 km/h (2 Bft) S-SO 202 0 min 0 W/m 14,1 C 20,2 C 11,9 km/h (2 Bft)
03/11/2011 14:35 20,1 C 68 % 994,7 hPa 0,0 mm 11,5 km/h (2 Bft) S 180 0 min 0 W/m 14,0 C 20,1 C 16,9 km/h (3 Bft)
03/11/2011 14:40 20,0 C 68 % 994,7 hPa 0,0 mm 9,0 km/h (2 Bft) S-SO 202 0 min 0 W/m 13,9 C 20,0 C 10,8 km/h (2 Bft)
03/11/2011 14:45 19,9 C 70 % 994,7 hPa 0,0 mm 5,0 km/h (1 Bft) S-SO 202 0 min 0 W/m 14,3 C 19,9 C 5,0 km/h (1 Bft)
03/11/2011 14:50 19,8 C 70 % 994,6 hPa 0,0 mm 3,6 km/h (1 Bft) SO 225 0 min 0 W/m 14,2 C 19,8 C 4,0 km/h (1 Bft)
03/11/2011 14:55 19,8 C 71 % 994,5 hPa 0,0 mm 5,8 km/h (2 Bft) SO 225 0 min 0 W/m 14,4 C 19,8 C 6,8 km/h (2 Bft)
03/11/2011 15:00 19,6 C 71 % 994,5 hPa 0,0 mm 4,0 km/h (1 Bft) S 180 0 min 0 W/m 14,2 C 19,6 C 6,1 km/h (2 Bft)
03/11/2011 15:05 19,4 C 71 % 994,5 hPa 0,0 mm 4,7 km/h (1 Bft) S-SO 202 0 min 0 W/m 14,0 C 19,4 C 7,9 km/h (2 Bft)
03/11/2011 15:10 19,3 C 72 % 994,6 hPa 0,0 mm 9,4 km/h (2 Bft) S-SE 157 0 min 0 W/m 14,1 C 19,3 C 9,4 km/h (2 Bft)
03/11/2011 15:15 19,1 C 73 % 994,6 hPa 0,0 mm 7,9 km/h (2 Bft) S 180 0 min 0 W/m 14,1 C 19,1 C 7,9 km/h (2 Bft)
03/11/2011 15:20 18,8 C 75 % 994,8 hPa 0,0 mm 7,9 km/h (2 Bft) SO 225 0 min 0 W/m 14,3 C 18,8 C 10,8 km/h (2 Bft)
03/11/2011 15:25 18,4 C 77 % 994,9 hPa 0,3 mm 4,3 km/h (1 Bft) SO 225 0 min 0 W/m 14,3 C 18,4 C 4,3 km/h (1 Bft)
03/11/2011 15:30 18,1 C 79 % 994,9 hPa 0,3 mm 8,6 km/h (2 Bft) S-SO 202 0 min 0 W/m 14,4 C 18,1 C 8,6 km/h (2 Bft)
03/11/2011 15:35 17,6 C 80 % 994,6 hPa 0,8 mm 1,1 km/h (1 Bft) SO 225 0 min 0 W/m 14,1 C 17,6 C 3,6 km/h (1 Bft)
03/11/2011 15:40 17,2 C 82 % 994,8 hPa 0,8 mm 6,1 km/h (2 Bft) SO 225 0 min 0 W/m 14,1 C 17,2 C 9,0 km/h (2 Bft)
03/11/2011 15:45 16,9 C 84 % 994,6 hPa 1,6 mm 5,0 km/h (1 Bft) O-SO 247 0 min 0 W/m 14,2 C 16,9 C 7,2 km/h (2 Bft)
03/11/2011 15:50 16,4 C 85 % 994,5 hPa 0,3 mm 4,7 km/h (1 Bft) SO 225 0 min 0 W/m 13,9 C 16,4 C 9,0 km/h (2 Bft)
03/11/2011 15:55 16,1 C 85 % 994,6 hPa 0,3 mm 3,2 km/h (1 Bft) S-SO 202 0 min 0 W/m 13,6 C 16,1 C 6,8 km/h (2 Bft)
03/11/2011 16:00 15,9 C 86 % 994,7 hPa 0,5 mm 3,2 km/h (1 Bft) S-SO 202 0 min 0 W/m 13,6 C 15,9 C 3,2 km/h (1 Bft)
03/11/2011 16:05 15,7 C 87 % 994,5 hPa 0,5 mm 5,0 km/h (1 Bft) O-SO 247 0 min 0 W/m 13,5 C 15,7 C 6,5 km/h (2 Bft)
03/11/2011 16:10 15,5 C 87 % 994,5 hPa 0,3 mm 2,5 km/h (1 Bft) SO 225 0 min 0 W/m 13,3 C 15,5 C 4,3 km/h (1 Bft)
03/11/2011 16:15 15,3 C 88 % 994,6 hPa 0,8 mm 4,3 km/h (1 Bft) SO 225 0 min 0 W/m 13,3 C 15,3 C 4,3 km/h (1 Bft)
03/11/2011 16:20 15,1 C 88 % 994,8 hPa 0,3 mm 5,0 km/h (1 Bft) S-SO 202 0 min 0 W/m 13,1 C 15,1 C 6,1 km/h (2 Bft)
03/11/2011 16:25 15,1 C 89 % 994,9 hPa 0,5 mm 4,0 km/h (1 Bft) SO 225 0 min 0 W/m 13,3 C 15,1 C 6,8 km/h (2 Bft)
03/11/2011 16:30 14,9 C 89 % 994,8 hPa 0,5 mm 5,4 km/h (2 Bft) SO 225 0 min 0 W/m 13,1 C 14,9 C 7,2 km/h (2 Bft)
03/11/2011 16:35 14,8 C 89 % 994,9 hPa 0,5 mm 11,5 km/h (2 Bft) SO 225 0 min 0 W/m 13,0 C 14,8 C 22,3 km/h (4 Bft)
03/11/2011 16:40 14,6 C 89 % 994,8 hPa 0,5 mm 9,4 km/h (2 Bft) SO 225 0 min 0 W/m 12,8 C 14,6 C 13,3 km/h (3 Bft)
03/11/2011 16:45 14,4 C 89 % 994,6 hPa 0,3 mm 6,8 km/h (2 Bft) O-SO 247 0 min 0 W/m 12,6 C 14,4 C 10,8 km/h (2 Bft)
03/11/2011 16:50 14,3 C 89 % 994,4 hPa 0,3 mm 6,5 km/h (2 Bft) SO 225 0 min 0 W/m 12,5 C 14,3 C 8,6 km/h (2 Bft)
03/11/2011 16:55 14,1 C 89 % 994,5 hPa 0,0 mm 6,5 km/h (2 Bft) N 360 0 min 0 W/m 12,3 C 14,1 C 6,5 km/h (2 Bft)
03/11/2011 17:00 13,9 C 89 % 994,6 hPa 0,3 mm 5,8 km/h (2 Bft) SO 225 0 min 0 W/m 12,1 C 13,9 C 7,2 km/h (2 Bft)
03/11/2011 17:05 13,8 C 88 % 994,7 hPa 0,0 mm 6,8 km/h (2 Bft) SO 225 0 min 0 W/m 11,8 C 13,8 C 17,3 km/h (3 Bft)
03/11/2011 17:10 13,6 C 89 % 994,5 hPa 0,5 mm 9,0 km/h (2 Bft) O-SO 247 0 min 0 W/m 11,8 C 13,6 C 13,7 km/h (3 Bft)
03/11/2011 17:15 13,5 C 89 % 994,4 hPa 0,3 mm 6,5 km/h (2 Bft) SO 225 0 min 0 W/m 11,7 C 13,5 C 9,0 km/h (2 Bft)
03/11/2011 17:20 13,4 C 89 % 994,6 hPa 0,3 mm 8,3 km/h (2 Bft) S-SO 202 0 min 0 W/m 11,6 C 13,4 C 12,6 km/h (3 Bft)
03/11/2011 17:25 13,2 C 90 % 994,6 hPa 0,5 mm 6,8 km/h (2 Bft) SO 225 0 min 0 W/m 11,6 C 13,2 C 7,9 km/h (2 Bft)
03/11/2011 17:30 13,1 C 90 % 994,7 hPa 0,3 mm 2,5 km/h (1 Bft) S-SO 202 0 min 0 W/m 11,5 C 13,1 C 4,3 km/h (1 Bft)
03/11/2011 17:35 13,1 C 90 % 994,6 hPa 0,3 mm 3,2 km/h (1 Bft) SO 225 0 min 0 W/m 11,5 C 13,1 C 4,3 km/h (1 Bft)
03/11/2011 17:40 12,9 C 90 % 994,6 hPa 0,3 mm 2,5 km/h (1 Bft) S 180 0 min 0 W/m 11,3 C 12,9 C 3,6 km/h (1 Bft)
03/11/2011 17:45 12,9 C 90 % 994,6 hPa 0,3 mm 0,4 km/h (0 Bft) S-SO 202 0 min 0 W/m 11,3 C 12,9 C 3,6 km/h (1 Bft)
03/11/2011 17:50 12,9 C 91 % 994,7 hPa 0,0 mm 1,8 km/h (1 Bft) S-SO 202 0 min 0 W/m 11,5 C 12,9 C 3,6 km/h (1 Bft)
03/11/2011 17:55 12,9 C 91 % 994,9 hPa 0,3 mm 2,9 km/h (1 Bft) S-SO 202 0 min 0 W/m 11,5 C 12,9 C 7,2 km/h (2 Bft)
03/11/2011 18:00 12,9 C 91 % 994,7 hPa 0,5 mm 2,5 km/h (1 Bft) S-SO 202 0 min 0 W/m 11,5 C 12,9 C 4,3 km/h (1 Bft)
03/11/2011 18:05 12,8 C 92 % 994,5 hPa 0,3 mm 1,4 km/h (1 Bft) SO 225 0 min 0 W/m 11,5 C 12,8 C 1,4 km/h (1 Bft)
03/11/2011 18:10 12,8 C 92 % 994,5 hPa 0,3 mm 0,0 km/h (0 Bft) SO 225 0 min 0 W/m 11,5 C 12,8 C 1,4 km/h (1 Bft)
03/11/2011 18:15 12,8 C 92 % 994,5 hPa 0,3 mm 2,2 km/h (1 Bft) SO 225 0 min 0 W/m 11,5 C 12,8 C 3,6 km/h (1 Bft)
03/11/2011 18:20 12,8 C 92 % 994,4 hPa 0,5 mm 2,2 km/h (1 Bft) SO 225 0 min 0 W/m 11,5 C 12,8 C 3,6 km/h (1 Bft)
03/11/2011 18:25 12,8 C 92 % 994,3 hPa 0,5 mm 6,1 km/h (2 Bft) S-SO 202 0 min 0 W/m 11,5 C 12,8 C 9,0 km/h (2 Bft)
03/11/2011 18:30 12,8 C 92 % 994,3 hPa 0,5 mm 4,7 km/h (1 Bft) SO 225 0 min 0 W/m 11,5 C 12,8 C 7,6 km/h (2 Bft)
03/11/2011 18:35 12,8 C 92 % 994,5 hPa 0,5 mm 2,5 km/h (1 Bft) S-SO 202 0 min 0 W/m 11,5 C 12,8 C 3,2 km/h (1 Bft)
03/11/2011 18:40 12,7 C 92 % 994,1 hPa 0,3 mm 1,8 km/h (1 Bft) SE 135 0 min 0 W/m 11,4 C 12,7 C 2,9 km/h (1 Bft)
03/11/2011 18:45 12,6 C 91 % 994,0 hPa 0,3 mm 4,0 km/h (1 Bft) S-SE 157 0 min 0 W/m 11,2 C 12,6 C 8,6 km/h (2 Bft)
03/11/2011 18:50 12,6 C 91 % 993,7 hPa 0,5 mm 1,1 km/h (1 Bft) E 90 0 min 0 W/m 11,2 C 12,6 C 4,0 km/h (1 Bft)
03/11/2011 18:55 12,6 C 91 % 994,1 hPa 0,5 mm 4,3 km/h (1 Bft) S-SE 157 0 min 0 W/m 11,2 C 12,6 C 7,2 km/h (2 Bft)
03/11/2011 19:00 12,6 C 91 % 994,2 hPa 0,5 mm 5,8 km/h (2 Bft) SE 135 0 min 0 W/m 11,2 C 12,6 C 10,4 km/h (2 Bft)
03/11/2011 19:05 12,6 C 91 % 994,2 hPa 0,5 mm 3,2 km/h (1 Bft) E-SE 112 0 min 0 W/m 11,2 C 12,6 C 6,5 km/h (2 Bft)
03/11/2011 19:10 12,6 C 91 % 994,2 hPa 0,5 mm 4,7 km/h (1 Bft) E-NE 67 0 min 0 W/m 11,2 C 12,6 C 8,6 km/h (2 Bft)
03/11/2011 19:15 12,5 C 91 % 994,1 hPa 0,8 mm 7,2 km/h (2 Bft) E 90 0 min 0 W/m 11,1 C 12,5 C 10,8 km/h (2 Bft)
03/11/2011 19:20 12,5 C 92 % 993,5 hPa 0,5 mm 1,1 km/h (1 Bft) E 90 0 min 0 W/m 11,2 C 12,5 C 3,6 km/h (1 Bft)
03/11/2011 19:25 12,4 C 92 % 993,3 hPa 0,3 mm 2,5 km/h (1 Bft) E-NE 67 0 min 0 W/m 11,1 C 12,4 C 6,5 km/h (2 Bft)
03/11/2011 19:30 12,4 C 92 % 993,5 hPa 0,0 mm 7,9 km/h (2 Bft) E 90 0 min 0 W/m 11,1 C 12,4 C 10,8 km/h (2 Bft)
03/11/2011 19:35 12,4 C 92 % 993,5 hPa 0,0 mm 2,9 km/h (1 Bft) SE 135 0 min 0 W/m 11,1 C 12,4 C 4,0 km/h (1 Bft)
03/11/2011 19:40 12,3 C 92 % 993,6 hPa 0,0 mm 0,4 km/h (0 Bft) SE 135 0 min 0 W/m 11,0 C 12,3 C 3,6 km/h (1 Bft)
03/11/2011 19:45 12,3 C 92 % 993,5 hPa 0,0 mm 0,4 km/h (0 Bft) SE 135 0 min 0 W/m 11,0 C 12,3 C 3,6 km/h (1 Bft)
03/11/2011 19:50 12,3 C 92 % 993,6 hPa 0,0 mm 2,2 km/h (1 Bft) SE 135 0 min 0 W/m 11,0 C 12,3 C 4,3 km/h (1 Bft)
03/11/2011 19:55 12,3 C 92 % 993,8 hPa 0,0 mm 2,2 km/h (1 Bft) SE 135 0 min 0 W/m 11,0 C 12,3 C 4,3 km/h (1 Bft)
03/11/2011 20:00 12,3 C 92 % 994,0 hPa 0,0 mm 1,4 km/h (1 Bft) S-SE 157 0 min 0 W/m 11,0 C 12,3 C 3,2 km/h (1 Bft)
03/11/2011 20:05 12,3 C 92 % 994,2 hPa 0,0 mm 2,9 km/h (1 Bft) SE 135 0 min 0 W/m 11,0 C 12,3 C 3,6 km/h (1 Bft)
03/11/2011 20:10 12,3 C 92 % 994,2 hPa 0,0 mm 0,0 km/h (0 Bft) S 180 0 min 0 W/m 11,0 C 12,3 C 0,0 km/h (0 Bft)
03/11/2011 20:15 12,3 C 92 % 994,2 hPa 0,0 mm 1,4 km/h (1 Bft) S-SO 202 0 min 0 W/m 11,0 C 12,3 C 1,4 km/h (1 Bft)
03/11/2011 20:20 12,4 C 93 % 994,2 hPa 0,0 mm 8,3 km/h (2 Bft) SO 225 0 min 0 W/m 11,3 C 12,4 C 13,3 km/h (3 Bft)
03/11/2011 20:25 12,4 C 93 % 994,4 hPa 0,0 mm 4,3 km/h (1 Bft) S-SO 202 0 min 0 W/m 11,3 C 12,4 C 6,5 km/h (2 Bft)
03/11/2011 20:30 12,6 C 92 % 994,3 hPa 0,0 mm 3,6 km/h (1 Bft) S-SO 202 0 min 0 W/m 11,3 C 12,6 C 4,0 km/h (1 Bft)
03/11/2011 20:35 12,6 C 92 % 994,1 hPa 0,0 mm 6,1 km/h (2 Bft) S-SO 202 0 min 0 W/m 11,3 C 12,6 C 9,0 km/h (2 Bft)
03/11/2011 20:40 12,6 C 92 % 994,0 hPa 0,0 mm 3,2 km/h (1 Bft) S-SO 202 0 min 0 W/m 11,3 C 12,6 C 6,5 km/h (2 Bft)
03/11/2011 20:45 12,6 C 92 % 994,3 hPa 0,0 mm 3,6 km/h (1 Bft) S-SO 202 0 min 0 W/m 11,3 C 12,6 C 3,6 km/h (1 Bft)
03/11/2011 20:50 12,6 C 92 % 994,3 hPa 0,0 mm 6,1 km/h (2 Bft) S-SO 202 0 min 0 W/m 11,3 C 12,6 C 6,1 km/h (2 Bft)
03/11/2011 20:55 12,6 C 92 % 994,3 hPa 0,0 mm 4,7 km/h (1 Bft) S-SO 202 0 min 0 W/m 11,3 C 12,6 C 8,6 km/h (2 Bft)
03/11/2011 21:00 12,6 C 92 % 994,2 hPa 0,3 mm 5,4 km/h (2 Bft) SO 225 0 min 0 W/m 11,3 C 12,6 C 9,7 km/h (2 Bft)
03/11/2011 21:05 12,6 C 92 % 994,2 hPa 0,0 mm 5,4 km/h (2 Bft) S-SE 157 0 min 0 W/m 11,3 C 12,6 C 7,6 km/h (2 Bft)
03/11/2011 21:10 12,6 C 92 % 994,3 hPa 0,0 mm 3,6 km/h (1 Bft) S-SO 202 0 min 0 W/m 11,3 C 12,6 C 4,3 km/h (1 Bft)
03/11/2011 21:15 12,8 C 92 % 994,4 hPa 0,0 mm 7,9 km/h (2 Bft) S 180 0 min 0 W/m 11,5 C 12,8 C 14,8 km/h (3 Bft)
03/11/2011 21:20 12,8 C 92 % 994,4 hPa 0,0 mm 6,5 km/h (2 Bft) SO 225 0 min 0 W/m 11,5 C 12,8 C 9,7 km/h (2 Bft)
03/11/2011 21:25 12,8 C 92 % 994,4 hPa 0,0 mm 9,4 km/h (2 Bft) S-SO 202 0 min 0 W/m 11,5 C 12,8 C 15,1 km/h (3 Bft)
03/11/2011 21:30 12,8 C 92 % 994,4 hPa 0,0 mm 12,6 km/h (3 Bft) S-SO 202 0 min 0 W/m 11,5 C 12,8 C 12,6 km/h (3 Bft)
03/11/2011 21:35 12,7 C 92 % 994,5 hPa 0,0 mm 4,7 km/h (1 Bft) SO 225 0 min 0 W/m 11,4 C 12,7 C 4,7 km/h (1 Bft)
03/11/2011 21:40 12,6 C 92 % 994,7 hPa 0,0 mm 6,8 km/h (2 Bft) S 180 0 min 0 W/m 11,3 C 12,6 C 9,4 km/h (2 Bft)
03/11/2011 21:45 12,6 C 92 % 994,8 hPa 0,0 mm 4,7 km/h (1 Bft) SO 225 0 min 0 W/m 11,3 C 12,6 C 9,0 km/h (2 Bft)
03/11/2011 21:50 12,5 C 92 % 994,8 hPa 0,0 mm 7,6 km/h (2 Bft) S-SO 202 0 min 0 W/m 11,2 C 12,5 C 11,2 km/h (2 Bft)
03/11/2011 21:55 12,4 C 92 % 994,9 hPa 0,0 mm 4,3 km/h (1 Bft) SO 225 0 min 0 W/m 11,1 C 12,4 C 8,6 km/h (2 Bft)
03/11/2011 22:00 12,3 C 92 % 994,9 hPa 0,0 mm 4,3 km/h (1 Bft) S 180 0 min 0 W/m 11,0 C 12,3 C 6,5 km/h (2 Bft)
03/11/2011 22:05 12,2 C 92 % 995,1 hPa 0,0 mm 4,7 km/h (1 Bft) S 180 0 min 0 W/m 10,9 C 12,2 C 8,6 km/h (2 Bft)
03/11/2011 22:10 12,1 C 92 % 995,1 hPa 0,0 mm 2,2 km/h (1 Bft) S 180 0 min 0 W/m 10,8 C 12,1 C 7,6 km/h (2 Bft)
03/11/2011 22:15 12,0 C 92 % 995,3 hPa 0,0 mm 2,9 km/h (1 Bft) S-SE 157 0 min 0 W/m 10,7 C 12,0 C 3,6 km/h (1 Bft)
03/11/2011 22:20 11,9 C 92 % 995,4 hPa 0,0 mm 1,1 km/h (1 Bft) S 180 0 min 0 W/m 10,6 C 11,9 C 3,6 km/h (1 Bft)
03/11/2011 22:25 11,8 C 92 % 995,5 hPa 0,0 mm 4,3 km/h (1 Bft) S-SE 157 0 min 0 W/m 10,5 C 11,8 C 4,3 km/h (1 Bft)
03/11/2011 22:30 11,7 C 92 % 995,5 hPa 0,0 mm 1,8 km/h (1 Bft) S 180 0 min 0 W/m 10,4 C 11,7 C 3,6 km/h (1 Bft)
03/11/2011 22:35 11,6 C 92 % 995,5 hPa 0,0 mm 2,9 km/h (1 Bft) S 180 0 min 0 W/m 10,3 C 11,6 C 4,3 km/h (1 Bft)
03/11/2011 22:40 11,5 C 92 % 995,7 hPa 0,0 mm 2,9 km/h (1 Bft) S-SE 157 0 min 0 W/m 10,2 C 11,5 C 4,3 km/h (1 Bft)
03/11/2011 22:45 11,4 C 91 % 995,6 hPa 0,0 mm 3,2 km/h (1 Bft) S-SO 202 0 min 0 W/m 10,0 C 11,4 C 7,2 km/h (2 Bft)
03/11/2011 22:50 11,3 C 92 % 995,7 hPa 0,0 mm 3,2 km/h (1 Bft) S 180 0 min 0 W/m 10,0 C 11,3 C 4,3 km/h (1 Bft)
03/11/2011 22:55 11,2 C 92 % 995,6 hPa 0,0 mm 4,3 km/h (1 Bft) S-SE 157 0 min 0 W/m 9,9 C 11,2 C 9,4 km/h (2 Bft)
03/11/2011 23:00 11,2 C 92 % 995,7 hPa 0,0 mm 2,2 km/h (1 Bft) S-SO 202 0 min 0 W/m 9,9 C 11,2 C 6,1 km/h (2 Bft)
03/11/2011 23:05 11,2 C 92 % 995,5 hPa 0,0 mm 2,2 km/h (1 Bft) S-SO 202 0 min 0 W/m 9,9 C 11,2 C 4,0 km/h (1 Bft)
03/11/2011 23:10 11,2 C 92 % 995,6 hPa 0,0 mm 5,4 km/h (2 Bft) SO 225 0 min 0 W/m 9,9 C 11,2 C 8,3 km/h (2 Bft)
03/11/2011 23:15 11,1 C 92 % 995,7 hPa 0,0 mm 5,4 km/h (2 Bft) S-SO 202 0 min 0 W/m 9,8 C 11,1 C 8,6 km/h (2 Bft)
03/11/2011 23:20 11,1 C 92 % 995,7 hPa 0,0 mm 4,3 km/h (1 Bft) SO 225 0 min 0 W/m 9,8 C 11,1 C 9,7 km/h (2 Bft)
03/11/2011 23:25 11,1 C 91 % 995,8 hPa 0,0 mm 6,1 km/h (2 Bft) S 180 0 min 0 W/m 9,7 C 11,1 C 7,9 km/h (2 Bft)
03/11/2011 23:30 11,2 C 91 % 995,7 hPa 0,0 mm 3,2 km/h (1 Bft) S-SO 202 0 min 0 W/m 9,8 C 11,2 C 3,6 km/h (1 Bft)
03/11/2011 23:35 11,3 C 91 % 995,7 hPa 0,0 mm 4,7 km/h (1 Bft) S-SO 202 0 min 0 W/m 9,9 C 11,3 C 7,9 km/h (2 Bft)
03/11/2011 23:40 11,3 C 90 % 995,8 hPa 0,0 mm 4,0 km/h (1 Bft) S-SO 202 0 min 0 W/m 9,7 C 11,3 C 7,9 km/h (2 Bft)
03/11/2011 23:45 11,3 C 90 % 995,7 hPa 0,0 mm 4,7 km/h (1 Bft) S-SO 202 0 min 0 W/m 9,7 C 11,3 C 4,7 km/h (1 Bft)
03/11/2011 23:50 11,3 C 90 % 995,7 hPa 0,0 mm 2,2 km/h (1 Bft) S-SO 202 0 min 0 W/m 9,7 C 11,3 C 4,0 km/h (1 Bft)
03/11/2011 23:55 11,3 C 90 % 995,7 hPa 0,0 mm 2,9 km/h (1 Bft) S-SO 202 0 min 0 W/m 9,7 C 11,3 C 3,2 km/h (1 Bft)
_ Min-Heure 23:25 13:55 19:25 - 20:10 - - - - 23:25 23:25 20:10
Minimum _ 11,1 C 64 % 993,3 hPa - 0,0 km/h (0 Bft) - - - - 9,7 C 11,1 C 0,0 km/h (0 Bft)
_ Max-Heure 13:45 20:25 05:15 15:45 02:30 - - 23:55 23:55 15:30 13:45 01:00
Maximum _ 21,1 C 93 % 999,1 hPa 1,6 mm 19,1 km/h
E-SE (3 Bft)
- - 0 min 0 W/m 14,4 C 21,1 C 33,1 km/h
S (5 Bft)
Moyenne _ 16,2 C 79 % 996,4 hPa #21,0 mm 7,0 km/h (2 Bft) S-SO - #0 min. 0 W/m 12,4 C 16,2 C 10,6 km/h (2 Bft)
Saint Bonnet de Bellac- Haute Vienne - France